Flag for U.S.A. Weather past 2 weeks in Dayton, Ohio, U.S.A.

Now
72 °F

Light rain. Fog.


Feels Like: 66 °F
Forecast: 65 / 71 °F
Wind: 7 mph from Southwest

Location: Dayton / Wright-Patterson Air Force Base

Current Time: Jul 7, 2015 at 8:47:30 PM

Latest Report: Jul 7, 2015 at 7:58 PM


Visibility: 6 mi

Pressure: 29.93 "Hg

Humidity: 98%

Dew point: 71 °F

Location of DaytonLocation

Historic Weather in Dayton — Graph

°F

Dayton temperature yesterday

Maximum temperature yesterday: 83 °F (at 4:58 PM)
Minimum temperature yesterday: 61 °F (at 4:58 AM)
Average temperature yesterday: 73 °F

Past Weeks' High & Low Weather Summary

 TemperatureHumidityPressure
High84 °F (Jun 22, 6:58 PM)100% (Jun 27, 12:58 AM)30.18 "Hg (Jun 27, 12:58 AM)
Low58 °F (Jun 24, 5:58 AM)34% (Jun 23, 6:58 PM)29.69 "Hg (Jun 27, 7:58 AM)
Average70 °F76%29.94 "Hg
* Reported Jun 22 6:58 PM — Jul 7 6:58 PM, Dayton, Weather by CustomWeather, © 2015

Note: Actual official high and low records may vary slightly from our data, if they occured in-between our weather recording intervals... More about our weather records

Advertising

Dayton weather history for previous 24 hours

 ConditionsComfort  
Time TempWeatherWind HumidityBarometerVisibility
6:58 PM
Tue, Jul 7
72 °FLight rain. More clouds than sun.5 mph99%29.94 "Hg7 mi
5:59 PM75 °FLots of rain. Fog.14 mph94%29.93 "Hg1 mi
4:58 PM78 °FMostly cloudy.10 mph81%29.91 "Hg10 mi
3:58 PM77 °FOvercast.14 mph81%29.92 "Hg10 mi
2:58 PM79 °FThundershowers. More clouds than sun.10 mph82%29.91 "Hg10 mi
2:01 PM81 °FSprinkles. Partly sunny.12 mph74%29.93 "Hg10 mi
1:59 PM81 °FBroken clouds.13 mph75%29.93 "Hg10 mi
12:58 PM81 °FScattered clouds.15 mph74%29.92 "Hg10 mi
11:58 AM79 °FBroken clouds.10 mph79%29.95 "Hg10 mi
10:58 AM78 °FPartly sunny.12 mph81%29.96 "Hg10 mi
9:58 AM76 °FMostly cloudy.14 mph86%29.96 "Hg10 mi
8:58 AM76 °FOvercast.15 mph87%29.96 "Hg10 mi
7:58 AM74 °FPartly sunny.8 mph89%29.96 "Hg10 mi
6:58 AM73 °FOvercast.8 mph92%29.96 "Hg10 mi
5:58 AM72 °FPassing clouds.7 mph91%29.96 "Hg10 mi
4:58 AM72 °FPassing clouds.7 mph91%29.96 "Hg10 mi
3:58 AM72 °FPassing clouds.6 mph90%29.96 "Hg10 mi
2:59 AM71 °FClear.2 mph89%29.97 "Hg10 mi
1:58 AM72 °FClear.7 mph86%29.98 "Hg10 mi
12:58 AM72 °FClear.7 mph84%29.98 "Hg10 mi
11:58 PM
Mon, Jul 6
74 °FClear.7 mph77%29.99 "Hg10 mi
10:58 PM74 °FClear.5 mph74%30.00 "Hg10 mi
9:58 PM75 °FSunny.No wind69%29.97 "Hg10 mi
8:58 PM78 °FSunny.8 mph63%29.99 "Hg10 mi
Weather by CustomWeather, © 2015

See weather overviewHow to use our weather pages